Location: Unspecified
(0.0000°N, 0.0000°E)
Time: 04:39:16
(UTC+00:00)

Tiros 1 despin weight - Pass Details

Date: 04 October 2020
Orbit: 594 x 641 km, 48.2° (Epoch: 28 October)

Event Time Altitude Azimuth Distance (km) Brightness Sun altitude
Rises 05:15:00 0° 189° (S) 2,838 ? -8.4°
Reaches altitude 10° 05:18:13 10° 165° (SSE) 1,927 ? -7.6°
Maximum altitude 05:20:42 15° 130° (SE) 1,635 ? -7.0°
Drops below altitude 10° 05:23:10 10° 96° (E) 1,918 ? -6.4°
Sets 05:26:20 0° 72° (ENE) 2,815 ? -5.6°
